Hilo, HI

8:02 AM HST on February 25, 2018 (GMT -1000)
Hilo International

Weather History for PHTO - October, 2012

Change the Weather History Date:

Saturday, October 6, 2012

  Actual Average Record
Temperature  
Mean Temperature 76 °F 76 °F  
Max Temperature 84 °F 83 °F 89 °F (2003)
Min Temperature 67 °F 69 °F 63 °F (1958)
Degree Days  
Heating Degree Days 0 0  
Month to date heating degree days 0 0  
Since 1 July heating degree days 0 0  
Cooling Degree Days 11 11  
Month to date cooling degree days 64 66  
Year to date cooling degree days 2419 2474  
Growing Degree Days 24 (Base 50)    
Moisture  
Dew Point 66 °F    
Average Humidity 75    
Maximum Humidity 87    
Minimum Humidity 62    
Precipitation  
Precipitation 0.00 in 0.29 in 2.11 in (1997)
Month to date precipitation 0.82 1.76  
Year to date precipitation 71.29 91.64  
Snow  
Snow 0.00 in - - ()
Month to date snowfall 0.0  
Since 1 July snowfall 0.0  
Since 1 September snowfall 0.0  
Snow Depth 0.00 in    
Sea Level Pressure  
Sea Level Pressure 29.91 in    
Wind  
Wind Speed 7 mph (SSE)    
Max Wind Speed 14 mph    
Max Gust Speed 20 mph    
Visibility 10 miles    
Events      
T = Trace of Precipitation, MM = Missing Value Source: NWS Daily Summary

Daily Weather History Graph

Daily Weather History Graph

Search for Another Location

Airport or City:

Trip Planner

Search our weather history database for the weather conditions in past years. The results will help you decide how hot, cold, wet, or windy it might be!

Date:

Astronomy

Oct. 06, 2012 Rise Set
Actual Time 6:12 AM HST 6:03 PM HST
Civil Twilight 5:50 AM HST 6:25 PM HST
Nautical Twilight 5:24 AM HST 6:50 PM HST
Astronomical Twilight 4:59 AM HST 7:16 PM HST
Moon 11:02 PM HST (10/6) 11:40 AM HST (10/6)
Length of Visible Light 12h 35m
Length of Day
11h 51m
Waning Gibbous, 63% of the Moon is Illuminated
Oct 6
Waning Gibbous
Oct 7
Last Quarter
Oct 15
New
Oct 21
First Quarter
Oct 29
Full

Hourly Weather History & Observations

Time (HST) Temp. Heat Index Dew Point Humidity Pressure Visibility Wind Dir Wind Speed Gust Speed Precip Events Conditions
12:53 AM 72.0 °F - 66.0 °F 81% 29.94 in 10.0 mi SW 3.5 mph - N/A   Overcast
1:53 AM 72.0 °F - 66.0 °F 81% 29.92 in 10.0 mi SSW 3.5 mph - N/A   Overcast
2:53 AM 69.1 °F - 64.9 °F 87% 29.91 in 10.0 mi SSW 3.5 mph - N/A   Partly Cloudy
3:53 AM 68.0 °F - 64.0 °F 87% 29.90 in 10.0 mi WSW 5.8 mph - N/A   Clear
4:53 AM 66.9 °F - 61.0 °F 81% 29.90 in 10.0 mi WSW 6.9 mph - N/A   Clear
5:53 AM 66.9 °F - 60.1 °F 79% 29.92 in 10.0 mi SW 6.9 mph - N/A   Mostly Cloudy
6:53 AM 68.0 °F - 60.1 °F 76% 29.93 in 10.0 mi SW 6.9 mph - N/A   Scattered Clouds
7:53 AM 73.0 °F - 62.1 °F 68% 29.94 in 10.0 mi SW 5.8 mph - N/A   Clear
8:53 AM 79.0 °F - 66.9 °F 66% 29.95 in 10.0 mi South 6.9 mph - N/A   Partly Cloudy
9:53 AM 81.0 °F 83.3 °F 66.9 °F 62% 29.94 in 10.0 mi East 6.9 mph - N/A   Scattered Clouds
10:53 AM 82.0 °F 84.9 °F 68.0 °F 62% 29.94 in 10.0 mi East 9.2 mph - N/A   Partly Cloudy
11:53 AM 82.9 °F 85.8 °F 68.0 °F 60% 29.92 in 10.0 mi East 11.5 mph - N/A   Clear
12:53 PM 82.9 °F 85.8 °F 68.0 °F 60% 29.90 in 10.0 mi East 10.4 mph - N/A   Clear
1:53 PM 81.0 °F 83.8 °F 68.0 °F 65% 29.88 in 10.0 mi ESE 8.1 mph - N/A   Overcast
2:53 PM 80.1 °F 82.7 °F 68.0 °F 67% 29.85 in 10.0 mi ESE 11.5 mph - N/A   Overcast
3:53 PM 80.1 °F 82.7 °F 68.0 °F 67% 29.86 in 10.0 mi SE 8.1 mph - N/A   Overcast
4:53 PM 79.0 °F - 68.0 °F 69% 29.86 in 10.0 mi SE 9.2 mph - N/A   Mostly Cloudy
5:53 PM 77.0 °F - 68.0 °F 74% 29.88 in 10.0 mi SSE 4.6 mph - N/A   Overcast
6:53 PM 75.9 °F - 68.0 °F 76% 29.90 in 10.0 mi Calm Calm - N/A   Overcast
7:53 PM 75.9 °F - 68.0 °F 76% 29.92 in 10.0 mi Calm Calm - N/A   Overcast
8:53 PM 75.0 °F - 68.0 °F 79% 29.93 in 10.0 mi Calm Calm - N/A   Overcast
9:53 PM 73.9 °F - 69.1 °F 85% 29.94 in 10.0 mi Calm Calm - N/A   Overcast
10:53 PM 73.0 °F - 68.0 °F 84% 29.92 in 10.0 mi SSE 3.5 mph - N/A   Scattered Clouds
11:53 PM 72.0 °F - 68.0 °F 87% 29.91 in 10.0 mi Calm Calm - N/A   Partly Cloudy